FW1036 Weather Reports


time (UTC)temp
C
wind
direction
speed
KPH
gust
KPH
rain 1hr
cm
rain 24hr
cm
rain mn
cm
humidity
%
barometer
mb
20260508131516 8 197 4.8 11.3 0.00 0.00 0.00 66 1011.4
20260508130011 7 223 3.2 11.3 0.00 0.00 0.00 71 1011.5
20260508124507 6 234 4.8 9.7 0.00 0.00 0.00 74 1011.4
20260508123004 6 242 4.8 9.7 0.00 0.00 0.00 76 1011.3
20260508121603 5 257 3.2 11.3 0.00 0.00 0.00 77 1011.1
20260508120055 5 240 3.2 6.4 0.00 0.00 0.00 79 1011.0
20260508114551 4 222 1.6 6.4 0.00 0.00 0.00 83 1010.9
20260508113104 3 222 0.0 0.0 0.00 0.00 0.00 85 1010.9
20260508111548 3 222 0.0 0.0 0.00 0.00 0.00 86 1010.9
20260508110042 2 222 0.0 0.0 0.00 0.00 0.00 87 1011.0
20260508104540 2 222 0.0 0.0 0.00 0.00 0.00 87 1011.0
20260508103039 2 222 0.0 0.0 0.00 0.00 0.00 87 1010.8
20260508101537 1 222 0.0 0.0 0.00 0.00 0.00 87 1010.8
20260508100035 1 222 0.0 0.0 0.00 0.00 0.00 86 1010.8
20260508094532 2 222 0.0 0.0 0.00 0.00 0.00 85 1010.8
20260508093032 2 222 0.0 1.6 0.00 0.00 0.00 84 1010.8
20260508091536 2 261 0.0 0.0 0.00 0.00 0.00 84 1010.8
20260508090037 2 261 0.0 0.0 0.00 0.00 0.00 84 1010.7
20260508084527 2 261 0.0 0.0 0.00 0.00 0.00 83 1010.7
20260508083024 2 261 0.0 0.0 0.00 0.00 0.00 82 1010.8
20260508081521 3 261 0.0 0.0 0.00 0.00 0.00 80 1010.9
20260508080030 3 261 0.0 0.0 0.00 0.00 0.00 79 1010.9
20260508074526 4 261 0.0 0.0 0.00 0.00 0.00 79 1010.8
20260508073015 5 261 0.0 6.4 0.00 0.00 0.00 79 1010.8
20260508071614 4 240 4.8 8.0 0.00 0.00 0.00 79 1010.7
20260508070010 5 233 3.2 8.0 0.00 0.00 0.00 78 1010.4
20260508064507 5 228 3.2 9.7 0.00 0.00 0.00 77 1010.5
20260508063005 5 213 3.2 8.0 0.00 0.00 0.00 75 1010.7
20260508061503 6 238 6.4 11.3 0.00 0.00 0.00 75 1010.9
20260508060109 6 220 4.8 9.7 0.00 0.00 0.00 75 1010.9
20260508054558 6 225 4.8 11.3 0.00 0.00 0.00 75 1010.9
20260508053056 6 229 4.8 9.7 0.00 0.00 0.00 75 1011.2
20260508051554 6 216 4.8 8.0 0.00 0.00 0.00 73 1011.2
20260508050053 6 223 4.8 11.3 0.00 0.00 0.00 73 1011.4
20260508044546 6 219 3.2 9.7 0.00 0.00 0.00 73 1011.3
20260508043045 5 212 3.2 9.7 0.00 0.00 0.00 71 1011.4
20260508041540 5 223 4.8 9.7 0.00 0.00 0.00 71 1011.5
20260508040036 6 219 4.8 12.9 0.00 0.00 0.00 70 1011.5
20260508034536 6 207 3.2 12.9 0.00 0.00 0.00 70 1011.4
20260508033036 5 242 1.6 6.4 0.00 0.00 0.00 73 1011.3
20260508031535 5 175 6.4 12.9 0.00 0.00 0.00 75 1011.4
20260508030039 4 163 6.4 11.3 0.00 0.00 0.00 77 1011.5
20260508024538 3 150 1.6 4.8 0.00 0.00 0.00 79 1011.7
20260508023034 3 150 3.2 4.8 0.00 0.00 0.00 79 1011.7
20260508021544 3 133 3.2 6.4 0.00 0.00 0.00 77 1011.5
20260508020032 3 132 3.2 6.4 0.00 0.00 0.00 76 1011.3
20260508014532 5 142 3.2 8.0 0.00 0.00 0.00 74 1011.5
20260508013039 5 140 9.7 14.5 0.00 0.00 0.00 73 1011.3
20260508011533 5 171 9.7 16.1 0.00 0.00 0.00 73 1011.4
20260508010033 5 136 12.9 20.9 0.00 0.00 0.00 72 1011.3
20260508004537 5 148 6.4 12.9 0.00 0.00 0.00 72 1011.2
20260508003029 5 128 9.7 12.9 0.00 0.00 0.00 70 1011.0
20260508001528 6 125 6.4 12.9 0.00 0.00 0.00 69 1011.1
20260508000028 6 125 6.4 14.5 0.00 0.00 0.00 66 1010.9
20260507234526 6 85 6.4 14.5 0.00 0.00 0.00 66 1011.0
20260507233035 6 111 8.0 16.1 0.00 0.00 0.00 64 1010.9
20260507231525 6 93 9.7 16.1 0.00 0.00 0.00 66 1011.0
20260507230026 6 82 11.3 16.1 0.00 0.00 0.00 67 1011.1
20260507224523 7 84 11.3 14.5 0.00 0.00 0.00 67 1010.9
20260507223023 7 73 8.0 14.5 0.00 0.00 0.00 69 1011.1
20260507221522 6 54 11.3 16.1 0.00 0.00 0.00 68 1011.1
20260507220022 7 70 9.7 14.5 0.00 0.00 0.00 70 1011.1
20260507214526 6 56 6.4 17.7 0.00 0.00 0.00 70 1011.1
20260507213020 6 68 9.7 17.7 0.00 0.00 0.00 70 1011.1
20260507211518 7 77 12.9 19.3 0.00 0.00 0.00 70 1011.1
20260507210032 5 82 9.7 16.1 0.00 0.00 0.00 71 1011.3
20260507204516 6 84 9.7 16.1 0.00 0.00 0.00 72 1011.3
20260507203015 7 40 14.5 19.3 0.00 0.00 0.00 73 1011.4
20260507201514 6 61 8.0 16.1 0.00 0.00 0.00 72 1011.4
20260507200018 6 56 11.3 16.1 0.00 0.00 0.00 74 1011.7
20260507194517 5 36 6.4 14.5 0.00 0.00 0.00 68 1011.9
20260507193014 6 52 16.1 20.9 0.00 0.00 0.00 68 1011.5
20260507191511 6 48 14.5 20.9 0.00 0.00 0.00 67 1011.7
20260507190012 6 41 12.9 20.9 0.00 0.00 0.00 69 1011.8
20260507184516 6 46 14.5 20.9 0.00 0.00 0.00 66 1012.0
20260507183009 6 53 16.1 22.5 0.00 0.00 0.00 67 1011.9
20260507181508 6 57 12.9 22.5 0.00 0.00 0.00 71 1012.0
20260507180007 6 60 12.9 17.7 0.00 0.00 0.00 71 1011.9
20260507174507 6 81 14.5 22.5 0.00 0.00 0.00 69 1011.9
20260507173006 6 42 17.7 24.1 0.00 0.00 0.00 68 1011.9
20260507171504 6 57 9.7 17.7 0.00 0.00 0.00 68 1012.0
20260507170005 7 94 9.7 17.7 0.00 0.00 0.00 68 1011.8
20260507164504 7 67 4.8 19.3 0.00 0.00 0.00 68 1011.7
20260507163003 8 94 4.8 11.3 0.00 0.00 0.00 66 1011.9
20260507161502 9 22 4.8 14.5 0.00 0.00 0.00 56 1011.9
20260507160001 9 304 3.2 17.7 0.00 0.00 0.00 56 1011.9
20260507154607 9 294 1.6 8.0 0.00 0.00 0.00 58 1012.0
20260507153159 9 284 1.6 6.4 0.00 0.00 0.00 56 1012.0
20260507151558 9 277 6.4 24.1 0.00 0.00 0.00 58 1011.8
20260507150059 9 25 0.0 8.0 0.00 0.00 0.00 59 1012.1
20260507144554 8 263 3.2 8.0 0.00 0.00 0.00 57 1012.1
20260507143053 8 173 0.0 8.0 0.00 0.00 0.00 62 1012.1
20260507141544 8 267 3.2 6.4 0.00 0.00 0.00 60 1012.2
20260507140041 7 275 3.2 12.9 0.00 0.00 0.00 62 1012.3
20260507134539 7 15 3.2 9.7 0.00 0.00 0.00 64 1012.4
20260507133035 6 295 1.6 9.7 0.00 0.00 0.00 66 1012.5